contact:dominique.lefevre@mio.osupytheas.fr, maurice.libes@osupytheas.fr, didier.mallarino@osupytheas.fr
Project:EMSO http://www.emso-fr.org/EMSO-France
Depth: 2436.0 m
Title:EMSO Ligure Ouest : Data MII capteur MICROCAT
DateTime_Computer,Latitude,Longitude,Temperature,Conductivity,Pressure,DateTime_Instrument
DateTime_Computer,Latitude,Longitude,degC,S m-1,dbar,DateTime_Instrument
2017-11-19T00:01:47Z,42.805,6.029,13.2945,4.59972,2471.979,2017-11-19T02:03:14Z
2017-11-19T00:04:50Z,42.805,6.029,13.2945,4.59977,2471.979,2017-11-19T02:06:17Z
2017-11-19T00:07:52Z,42.805,6.029,13.2944,4.59980,2472.002,2017-11-19T02:09:20Z
2017-11-19T00:10:55Z,42.805,6.029,13.2943,4.59974,2471.979,2017-11-19T02:12:23Z
2017-11-19T00:13:58Z,42.805,6.029,13.2949,4.59978,2471.979,2017-11-19T02:15:26Z
2017-11-19T00:17:01Z,42.805,6.029,13.2951,4.59979,2471.987,2017-11-19T02:18:29Z
2017-11-19T00:20:04Z,42.805,6.029,13.2946,4.59994,2472.002,2017-11-19T02:21:32Z
2017-11-19T00:23:07Z,42.805,6.029,13.2944,4.59995,2471.964,2017-11-19T02:24:35Z
2017-11-19T00:26:10Z,42.805,6.029,13.2946,4.59977,2471.979,2017-11-19T02:27:38Z
2017-11-19T00:29:13Z,42.805,6.029,13.2950,4.59975,2471.979,2017-11-19T02:30:40Z
2017-11-19T00:32:16Z,42.805,6.029,13.2947,4.59978,2471.979,2017-11-19T02:33:43Z
2017-11-19T00:35:19Z,42.805,6.029,13.2945,4.59978,2471.979,2017-11-19T02:36:46Z
2017-11-19T00:38:21Z,42.805,6.029,13.2948,4.59977,2471.979,2017-11-19T02:39:49Z
2017-11-19T00:41:24Z,42.805,6.029,13.2949,4.59982,2471.979,2017-11-19T02:42:52Z
2017-11-19T00:44:27Z,42.805,6.029,13.2944,4.59974,2471.957,2017-11-19T02:45:55Z
2017-11-19T00:47:30Z,42.805,6.029,13.2950,4.59974,2471.964,2017-11-19T02:48:58Z
2017-11-19T00:50:33Z,42.805,6.029,13.2948,4.59972,2471.979,2017-11-19T02:52:01Z
2017-11-19T00:53:36Z,42.805,6.029,13.2948,4.59990,2472.002,2017-11-19T02:55:04Z
2017-11-19T00:56:39Z,42.805,6.029,13.2950,4.59994,2471.942,2017-11-19T02:58:06Z
2017-11-19T00:59:42Z,42.805,6.029,13.2944,4.59989,2471.942,2017-11-19T03:01:09Z
2017-11-19T01:02:45Z,42.805,6.029,13.2945,4.59977,2471.957,2017-11-19T03:04:12Z
2017-11-19T01:05:47Z,42.805,6.029,13.2945,4.59978,2471.957,2017-11-19T03:07:15Z
2017-11-19T01:08:50Z,42.805,6.029,13.2948,4.59978,2471.934,2017-11-19T03:10:18Z
2017-11-19T01:11:53Z,42.805,6.029,13.2950,4.59975,2471.957,2017-11-19T03:13:21Z
2017-11-19T01:14:56Z,42.805,6.029,13.2945,4.59977,2471.942,2017-11-19T03:16:24Z
2017-11-19T01:17:59Z,42.805,6.029,13.2944,4.59978,2471.964,2017-11-19T03:19:27Z
2017-11-19T01:21:02Z,42.805,6.029,13.2950,4.59984,2471.964,2017-11-19T03:22:30Z
2017-11-19T01:24:05Z,42.805,6.029,13.2951,4.59982,2471.934,2017-11-19T03:25:32Z
2017-11-19T01:27:08Z,42.805,6.029,13.2943,4.59975,2471.979,2017-11-19T03:28:35Z
2017-11-19T01:30:11Z,42.805,6.029,13.2949,4.59987,2471.957,2017-11-19T03:31:38Z
2017-11-19T01:33:14Z,42.805,6.029,13.2947,4.59998,2471.942,2017-11-19T03:34:41Z
2017-11-19T01:36:16Z,42.805,6.029,13.2958,4.59998,2471.934,2017-11-19T03:37:44Z
2017-11-19T01:39:19Z,42.805,6.029,13.2954,4.60001,2471.957,2017-11-19T03:40:47Z
2017-11-19T01:42:22Z,42.805,6.029,13.2945,4.59981,2471.979,2017-11-19T03:43:50Z
2017-11-19T01:45:25Z,42.805,6.029,13.2949,4.59982,2471.957,2017-11-19T03:46:53Z
2017-11-19T01:48:28Z,42.805,6.029,13.2945,4.59981,2472.002,2017-11-19T03:49:56Z
2017-11-19T01:51:31Z,42.805,6.029,13.2943,4.59973,2471.964,2017-11-19T03:52:58Z
2017-11-19T01:54:34Z,42.805,6.029,13.2950,4.59984,2471.957,2017-11-19T03:56:01Z
2017-11-19T01:57:37Z,42.805,6.029,13.2951,4.60009,2471.942,2017-11-19T03:59:04Z
2017-11-19T02:00:39Z,42.805,6.029,13.2963,4.60004,2471.964,2017-11-19T04:02:07Z
2017-11-19T02:03:42Z,42.805,6.029,13.2964,4.60004,2471.919,2017-11-19T04:05:10Z
2017-11-19T02:06:45Z,42.805,6.029,13.2975,4.59999,2471.979,2017-11-19T04:08:13Z
2017-11-19T02:09:48Z,42.805,6.029,13.2964,4.60000,2471.957,2017-11-19T04:11:16Z
2017-11-19T02:12:51Z,42.805,6.029,13.2950,4.60006,2471.942,2017-11-19T04:14:19Z
2017-11-19T02:15:54Z,42.805,6.029,13.2958,4.60004,2471.957,2017-11-19T04:17:22Z
2017-11-19T02:18:57Z,42.805,6.029,13.2972,4.60015,2471.957,2017-11-19T04:20:25Z
2017-11-19T02:22:00Z,42.805,6.029,13.2953,4.60005,2471.957,2017-11-19T04:23:27Z
2017-11-19T02:25:03Z,42.805,6.029,13.2958,4.60009,2471.979,2017-11-19T04:26:30Z
2017-11-19T02:28:06Z,42.805,6.029,13.2959,4.60007,2471.957,2017-11-19T04:29:33Z
2017-11-19T02:31:08Z,42.805,6.029,13.2977,4.60019,2471.957,2017-11-19T04:32:36Z
2017-11-19T02:34:11Z,42.805,6.029,13.2956,4.59978,2471.964,2017-11-19T04:35:39Z
2017-11-19T02:37:14Z,42.805,6.029,13.2963,4.59985,2471.987,2017-11-19T04:38:42Z
2017-11-19T02:40:17Z,42.805,6.029,13.2952,4.59984,2471.979,2017-11-19T04:41:45Z
2017-11-19T02:43:20Z,42.805,6.029,13.2960,4.60018,2471.957,2017-11-19T04:44:48Z
2017-11-19T02:46:23Z,42.805,6.029,13.2968,4.59985,2471.979,2017-11-19T04:47:51Z
2017-11-19T02:49:26Z,42.805,6.029,13.2966,4.60001,2471.979,2017-11-19T04:50:53Z
2017-11-19T02:52:29Z,42.805,6.029,13.2967,4.59973,2471.979,2017-11-19T04:53:56Z
2017-11-19T02:55:32Z,42.805,6.029,13.2956,4.59981,2471.964,2017-11-19T04:56:59Z
2017-11-19T02:58:34Z,42.805,6.029,13.2969,4.59976,2471.979,2017-11-19T05:00:02Z
2017-11-19T03:01:37Z,42.805,6.029,13.2950,4.59971,2472.002,2017-11-19T05:03:05Z
2017-11-19T03:04:40Z,42.805,6.029,13.2951,4.59995,2471.979,2017-11-19T05:06:08Z
2017-11-19T03:07:43Z,42.805,6.029,13.2946,4.59994,2471.979,2017-11-19T05:09:11Z
2017-11-19T03:10:46Z,42.805,6.029,13.2956,4.59981,2471.987,2017-11-19T05:12:14Z
2017-11-19T03:13:49Z,42.805,6.029,13.2954,4.59964,2471.964,2017-11-19T05:15:17Z
2017-11-19T03:16:52Z,42.805,6.029,13.2959,4.59985,2471.987,2017-11-19T05:18:19Z
2017-11-19T03:19:55Z,42.805,6.029,13.2953,4.59971,2471.979,2017-11-19T05:21:22Z
2017-11-19T03:22:58Z,42.805,6.029,13.2957,4.59974,2471.964,2017-11-19T05:24:25Z
2017-11-19T03:26:00Z,42.805,6.029,13.2965,4.60010,2471.979,2017-11-19T05:27:28Z
2017-11-19T03:29:03Z,42.805,6.029,13.2959,4.59987,2471.979,2017-11-19T05:30:31Z
2017-11-19T03:32:06Z,42.805,6.029,13.2955,4.59972,2471.964,2017-11-19T05:33:34Z
2017-11-19T03:35:09Z,42.805,6.029,13.2948,4.59976,2471.979,2017-11-19T05:36:37Z
2017-11-19T03:38:12Z,42.805,6.029,13.2949,4.59997,2471.987,2017-11-19T05:39:40Z
2017-11-19T03:41:15Z,42.805,6.029,13.2959,4.59981,2471.987,2017-11-19T05:42:43Z
2017-11-19T03:44:18Z,42.805,6.029,13.2945,4.59993,2472.002,2017-11-19T05:45:45Z
2017-11-19T03:47:21Z,42.805,6.029,13.2968,4.59977,2472.002,2017-11-19T05:48:48Z
2017-11-19T03:50:24Z,42.805,6.029,13.2954,4.59973,2472.024,2017-11-19T05:51:51Z
2017-11-19T03:53:27Z,42.805,6.029,13.2950,4.59987,2472.002,2017-11-19T05:54:54Z
2017-11-19T03:56:29Z,42.805,6.029,13.2957,4.60001,2472.039,2017-11-19T05:57:57Z
2017-11-19T03:59:32Z,42.805,6.029,13.2949,4.59974,2472.024,2017-11-19T06:01:00Z
2017-11-19T04:02:35Z,42.805,6.029,13.2945,4.59991,2472.01,2017-11-19T06:04:03Z
2017-11-19T04:05:38Z,42.805,6.029,13.2950,4.59980,2472.024,2017-11-19T06:07:06Z
2017-11-19T04:08:41Z,42.805,6.029,13.2947,4.59987,2472.01,2017-11-19T06:10:09Z
2017-11-19T04:11:44Z,42.805,6.029,13.2946,4.59981,2472.024,2017-11-19T06:13:12Z
2017-11-19T04:14:47Z,42.805,6.029,13.2945,4.59995,2472.024,2017-11-19T06:16:14Z
2017-11-19T04:17:50Z,42.805,6.029,13.2951,4.59981,2472.024,2017-11-19T06:19:17Z
2017-11-19T04:20:53Z,42.805,6.029,13.2964,4.59971,2472.024,2017-11-19T06:22:20Z
2017-11-19T04:23:55Z,42.805,6.029,13.2950,4.59969,2472.032,2017-11-19T06:25:23Z
2017-11-19T04:26:58Z,42.805,6.029,13.2956,4.59980,2472.024,2017-11-19T06:28:26Z
2017-11-19T04:30:01Z,42.805,6.029,13.2955,4.59983,2472.032,2017-11-19T06:31:29Z
2017-11-19T04:33:04Z,42.805,6.029,13.2971,4.59975,2472.032,2017-11-19T06:34:32Z
2017-11-19T04:36:07Z,42.805,6.029,13.2957,4.59971,2472.055,2017-11-19T06:37:35Z
2017-11-19T04:39:10Z,42.805,6.029,13.2954,4.59983,2472.024,2017-11-19T06:40:38Z
2017-11-19T04:42:13Z,42.805,6.029,13.2964,4.59986,2472.01,2017-11-19T06:43:40Z
2017-11-19T04:45:16Z,42.805,6.029,13.2954,4.59971,2472.069,2017-11-19T06:46:43Z
2017-11-19T04:48:19Z,42.805,6.029,13.2958,4.59981,2472.047,2017-11-19T06:49:46Z
2017-11-19T04:51:21Z,42.805,6.029,13.2958,4.59988,2472.069,2017-11-19T06:52:49Z
2017-11-19T04:54:24Z,42.805,6.029,13.2976,4.59974,2472.069,2017-11-19T06:55:52Z
2017-11-19T04:57:27Z,42.805,6.029,13.2944,4.59970,2472.069,2017-11-19T06:58:55Z
2017-11-19T05:00:30Z,42.805,6.029,13.2950,4.59971,2472.069,2017-11-19T07:01:58Z
2017-11-19T05:03:33Z,42.805,6.029,13.2959,4.59977,2472.069,2017-11-19T07:05:01Z
2017-11-19T05:06:36Z,42.805,6.029,13.2968,4.59978,2472.032,2017-11-19T07:08:04Z
2017-11-19T05:09:39Z,42.805,6.029,13.2954,4.60002,2472.115,2017-11-19T07:11:06Z
2017-11-19T05:12:42Z,42.805,6.029,13.2963,4.59984,2472.077,2017-11-19T07:14:09Z
2017-11-19T05:15:45Z,42.805,6.029,13.2968,4.59968,2472.115,2017-11-19T07:17:12Z
2017-11-19T05:18:47Z,42.805,6.029,13.2971,4.59970,2472.1,2017-11-19T07:20:15Z
2017-11-19T05:21:50Z,42.805,6.029,13.2957,4.59980,2472.1,2017-11-19T07:23:18Z
2017-11-19T05:24:53Z,42.805,6.029,13.2965,4.59983,2472.092,2017-11-19T07:26:21Z
2017-11-19T05:27:56Z,42.805,6.029,13.2970,4.59983,2472.115,2017-11-19T07:29:24Z
2017-11-19T05:30:59Z,42.805,6.029,13.2966,4.59978,2472.137,2017-11-19T07:32:27Z
2017-11-19T05:34:02Z,42.805,6.029,13.2977,4.59983,2472.115,2017-11-19T07:35:30Z
2017-11-19T05:37:05Z,42.805,6.029,13.2959,4.59979,2472.092,2017-11-19T07:38:33Z
2017-11-19T05:40:08Z,42.805,6.029,13.2951,4.59991,2472.115,2017-11-19T07:41:35Z
2017-11-19T05:43:11Z,42.805,6.029,13.2952,4.59984,2472.137,2017-11-19T07:44:38Z
2017-11-19T05:46:14Z,42.805,6.029,13.2957,4.59971,2472.115,2017-11-19T07:47:41Z
2017-11-19T05:49:16Z,42.805,6.029,13.2964,4.59984,2472.115,2017-11-19T07:50:44Z
2017-11-19T05:52:19Z,42.805,6.029,13.2965,4.59981,2472.115,2017-11-19T07:53:47Z
2017-11-19T05:55:22Z,42.805,6.029,13.2964,4.59970,2472.137,2017-11-19T07:56:50Z
2017-11-19T05:58:25Z,42.805,6.029,13.2982,4.59977,2472.137,2017-11-19T07:59:53Z
2017-11-19T06:01:28Z,42.805,6.029,13.2967,4.59978,2472.137,2017-11-19T08:02:56Z
2017-11-19T06:04:31Z,42.805,6.029,13.2958,4.59979,2472.1,2017-11-19T08:05:59Z
2017-11-19T06:07:34Z,42.805,6.029,13.2967,4.59982,2472.182,2017-11-19T08:09:01Z
2017-11-19T06:10:37Z,42.805,6.029,13.2963,4.59984,2472.137,2017-11-19T08:12:04Z
2017-11-19T06:13:40Z,42.805,6.029,13.2957,4.59972,2472.137,2017-11-19T08:15:07Z
2017-11-19T06:16:42Z,42.805,6.029,13.2969,4.59975,2472.137,2017-11-19T08:18:10Z
2017-11-19T06:19:45Z,42.805,6.029,13.2967,4.59981,2472.182,2017-11-19T08:21:13Z
2017-11-19T06:22:48Z,42.805,6.029,13.2954,4.59987,2472.145,2017-11-19T08:24:16Z
2017-11-19T06:25:51Z,42.805,6.029,13.2958,4.59984,2472.115,2017-11-19T08:27:19Z
2017-11-19T06:28:54Z,42.805,6.029,13.2969,4.59981,2472.16,2017-11-19T08:30:22Z
2017-11-19T06:31:57Z,42.805,6.029,13.2966,4.59981,2472.145,2017-11-19T08:33:25Z
2017-11-19T06:35:00Z,42.805,6.029,13.2978,4.59985,2472.16,2017-11-19T08:36:27Z
2017-11-19T06:38:03Z,42.805,6.029,13.2961,4.59972,2472.16,2017-11-19T08:39:30Z
2017-11-19T06:41:06Z,42.805,6.029,13.2964,4.59984,2472.137,2017-11-19T08:42:33Z
2017-11-19T06:44:08Z,42.805,6.029,13.2967,4.59984,2472.145,2017-11-19T08:45:36Z
2017-11-19T06:47:11Z,42.805,6.029,13.2958,4.59986,2472.168,2017-11-19T08:48:39Z
2017-11-19T06:50:14Z,42.805,6.029,13.2979,4.59982,2472.182,2017-11-19T08:51:42Z
2017-11-19T06:53:17Z,42.805,6.029,13.2954,4.59985,2472.168,2017-11-19T08:54:45Z
2017-11-19T06:56:20Z,42.805,6.029,13.2963,4.59981,2472.16,2017-11-19T08:57:48Z
2017-11-19T06:59:23Z,42.805,6.029,13.2969,4.59986,2472.145,2017-11-19T09:00:51Z
2017-11-19T07:02:26Z,42.805,6.029,13.2976,4.59992,2472.16,2017-11-19T09:03:53Z
2017-11-19T07:05:29Z,42.805,6.029,13.2979,4.59987,2472.19,2017-11-19T09:06:56Z
2017-11-19T07:08:32Z,42.805,6.029,13.2985,4.59978,2472.16,2017-11-19T09:09:59Z
2017-11-19T07:11:34Z,42.805,6.029,13.2988,4.59987,2472.168,2017-11-19T09:13:02Z
2017-11-19T07:14:37Z,42.805,6.029,13.2961,4.59990,2472.205,2017-11-19T09:16:05Z
2017-11-19T07:17:40Z,42.805,6.029,13.2978,4.59988,2472.205,2017-11-19T09:19:08Z
2017-11-19T07:20:43Z,42.805,6.029,13.2980,4.59979,2472.168,2017-11-19T09:22:11Z
2017-11-19T07:23:46Z,42.805,6.029,13.2976,4.59979,2472.205,2017-11-19T09:25:14Z
2017-11-19T07:26:49Z,42.805,6.029,13.2954,4.60000,2472.182,2017-11-19T09:28:17Z
2017-11-19T07:29:52Z,42.805,6.029,13.2969,4.59987,2472.205,2017-11-19T09:31:20Z
2017-11-19T07:32:55Z,42.805,6.029,13.2971,4.59993,2472.205,2017-11-19T09:34:22Z
2017-11-19T07:35:58Z,42.805,6.029,13.2969,4.59986,2472.16,2017-11-19T09:37:25Z
2017-11-19T07:39:01Z,42.805,6.029,13.2980,4.59991,2472.168,2017-11-19T09:40:28Z
2017-11-19T07:42:03Z,42.805,6.029,13.2975,4.59987,2472.168,2017-11-19T09:43:31Z
2017-11-19T07:45:06Z,42.805,6.029,13.2973,4.59995,2472.205,2017-11-19T09:46:34Z
2017-11-19T07:48:09Z,42.805,6.029,13.2973,4.59989,2472.16,2017-11-19T09:49:37Z
2017-11-19T07:51:12Z,42.805,6.029,13.2962,4.60002,2472.205,2017-11-19T09:52:40Z
2017-11-19T07:54:15Z,42.805,6.029,13.2972,4.59987,2472.182,2017-11-19T09:55:43Z
2017-11-19T07:57:18Z,42.805,6.029,13.2988,4.59983,2472.168,2017-11-19T09:58:46Z
2017-11-19T08:00:21Z,42.805,6.029,13.3011,4.59988,2472.205,2017-11-19T10:01:48Z
2017-11-19T08:03:24Z,42.805,6.029,13.2975,4.59987,2472.19,2017-11-19T10:04:51Z
2017-11-19T08:06:27Z,42.805,6.029,13.2968,4.59985,2472.19,2017-11-19T10:07:54Z
2017-11-19T08:09:29Z,42.805,6.029,13.2973,4.59989,2472.227,2017-11-19T10:10:57Z
2017-11-19T08:12:32Z,42.805,6.029,13.2988,4.59995,2472.182,2017-11-19T10:14:00Z
2017-11-19T08:15:35Z,42.805,6.029,13.2971,4.59992,2472.205,2017-11-19T10:17:03Z
2017-11-19T08:18:38Z,42.805,6.029,13.2982,4.59993,2472.168,2017-11-19T10:20:06Z
2017-11-19T08:21:41Z,42.805,6.029,13.2982,4.60009,2472.19,2017-11-19T10:23:09Z
2017-11-19T08:24:44Z,42.805,6.029,13.3017,4.59995,2472.182,2017-11-19T10:26:12Z
2017-11-19T08:27:47Z,42.805,6.029,13.2982,4.59999,2472.16,2017-11-19T10:29:15Z
2017-11-19T08:30:50Z,42.805,6.029,13.2981,4.60001,2472.182,2017-11-19T10:32:17Z
2017-11-19T08:33:53Z,42.805,6.029,13.2984,4.59992,2472.205,2017-11-19T10:35:20Z
2017-11-19T08:36:56Z,42.805,6.029,13.2980,4.59999,2472.182,2017-11-19T10:38:23Z
2017-11-19T08:39:58Z,42.805,6.029,13.2970,4.60010,2472.168,2017-11-19T10:41:26Z
2017-11-19T08:43:01Z,42.805,6.029,13.2978,4.59990,2472.182,2017-11-19T10:44:29Z
2017-11-19T08:46:04Z,42.805,6.029,13.2978,4.59993,2472.182,2017-11-19T10:47:32Z
2017-11-19T08:49:07Z,42.805,6.029,13.2973,4.59990,2472.182,2017-11-19T10:50:35Z
2017-11-19T08:52:10Z,42.805,6.029,13.2968,4.59993,2472.182,2017-11-19T10:53:38Z
2017-11-19T08:55:13Z,42.805,6.029,13.2973,4.59992,2472.16,2017-11-19T10:56:41Z
2017-11-19T08:58:16Z,42.805,6.029,13.2975,4.59988,2472.145,2017-11-19T10:59:43Z
2017-11-19T09:01:19Z,42.805,6.029,13.2973,4.59992,2472.205,2017-11-19T11:02:46Z
2017-11-19T09:04:22Z,42.805,6.029,13.2974,4.60020,2472.16,2017-11-19T11:05:49Z
2017-11-19T09:07:25Z,42.805,6.029,13.2975,4.60002,2472.16,2017-11-19T11:08:52Z
2017-11-19T09:10:27Z,42.805,6.029,13.3000,4.59995,2472.182,2017-11-19T11:11:55Z
2017-11-19T09:13:30Z,42.805,6.029,13.2981,4.59998,2472.16,2017-11-19T11:14:58Z
2017-11-19T09:16:33Z,42.805,6.029,13.2973,4.59998,2472.16,2017-11-19T11:18:01Z
2017-11-19T09:19:36Z,42.805,6.029,13.2977,4.59994,2472.168,2017-11-19T11:21:04Z
2017-11-19T09:22:39Z,42.805,6.029,13.3013,4.59998,2472.16,2017-11-19T11:24:07Z
2017-11-19T09:25:42Z,42.805,6.029,13.2983,4.59992,2472.16,2017-11-19T11:27:10Z
2017-11-19T09:28:45Z,42.805,6.029,13.2975,4.60009,2472.182,2017-11-19T11:30:12Z
2017-11-19T09:31:48Z,42.805,6.029,13.2940,4.60033,2472.182,2017-11-19T11:33:15Z
2017-11-19T09:34:51Z,42.805,6.029,13.2978,4.60023,2472.137,2017-11-19T11:36:18Z
2017-11-19T09:37:53Z,42.805,6.029,13.2989,4.60052,2472.16,2017-11-19T11:39:21Z
2017-11-19T09:40:56Z,42.805,6.029,13.2990,4.60003,2472.123,2017-11-19T11:42:24Z
2017-11-19T09:43:59Z,42.805,6.029,13.2973,4.60018,2472.123,2017-11-19T11:45:27Z
2017-11-19T09:47:02Z,42.805,6.029,13.2960,4.60009,2472.137,2017-11-19T11:48:30Z
2017-11-19T09:50:05Z,42.805,6.029,13.2943,4.59987,2472.137,2017-11-19T11:51:33Z
2017-11-19T09:53:08Z,42.805,6.029,13.2954,4.59998,2472.123,2017-11-19T11:54:36Z
2017-11-19T09:56:11Z,42.805,6.029,13.2993,4.60021,2472.16,2017-11-19T11:57:39Z
2017-11-19T09:59:14Z,42.805,6.029,13.2945,4.60009,2472.137,2017-11-19T12:00:41Z
2017-11-19T10:02:17Z,42.805,6.029,13.2998,4.60015,2472.115,2017-11-19T12:03:44Z
2017-11-19T10:05:20Z,42.805,6.029,13.2966,4.60025,2472.16,2017-11-19T12:06:47Z
2017-11-19T10:08:22Z,42.805,6.029,13.3016,4.60015,2472.145,2017-11-19T12:09:50Z
2017-11-19T10:11:25Z,42.805,6.029,13.2939,4.60009,2472.137,2017-11-19T12:12:53Z
2017-11-19T10:14:28Z,42.805,6.029,13.2937,4.60040,2472.137,2017-11-19T12:15:56Z
2017-11-19T10:17:31Z,42.805,6.029,13.2939,4.59974,2472.137,2017-11-19T12:18:59Z
2017-11-19T10:20:34Z,42.805,6.029,13.2938,4.59970,2472.137,2017-11-19T12:22:02Z
2017-11-19T10:23:37Z,42.805,6.029,13.2934,4.59974,2472.115,2017-11-19T12:25:05Z
2017-11-19T10:26:40Z,42.805,6.029,13.2940,4.59967,2472.115,2017-11-19T12:28:08Z
2017-11-19T10:29:43Z,42.805,6.029,13.2941,4.59965,2472.137,2017-11-19T12:31:10Z
2017-11-19T10:32:46Z,42.805,6.029,13.2939,4.59984,2472.137,2017-11-19T12:34:13Z
2017-11-19T10:35:49Z,42.805,6.029,13.2938,4.59964,2472.092,2017-11-19T12:37:16Z
2017-11-19T10:38:51Z,42.805,6.029,13.2938,4.59967,2472.115,2017-11-19T12:40:19Z
2017-11-19T10:41:54Z,42.805,6.029,13.2939,4.59970,2472.069,2017-11-19T12:43:22Z
2017-11-19T10:44:57Z,42.805,6.029,13.2940,4.59981,2472.115,2017-11-19T12:46:25Z
2017-11-19T10:48:00Z,42.805,6.029,13.2938,4.59972,2472.123,2017-11-19T12:49:28Z
2017-11-19T10:51:03Z,42.805,6.029,13.2936,4.59972,2472.123,2017-11-19T12:52:31Z
2017-11-19T10:54:06Z,42.805,6.029,13.2939,4.59973,2472.1,2017-11-19T12:55:34Z
2017-11-19T10:57:09Z,42.805,6.029,13.2935,4.59974,2472.092,2017-11-19T12:58:36Z
2017-11-19T11:00:12Z,42.805,6.029,13.2937,4.59978,2472.077,2017-11-19T13:01:39Z
2017-11-19T11:03:15Z,42.805,6.029,13.2937,4.59970,2472.115,2017-11-19T13:04:42Z
2017-11-19T11:06:17Z,42.805,6.029,13.2935,4.59968,2472.115,2017-11-19T13:07:45Z
2017-11-19T11:09:20Z,42.805,6.029,13.2940,4.59970,2472.077,2017-11-19T13:10:48Z
2017-11-19T11:12:23Z,42.805,6.029,13.2938,4.59967,2472.077,2017-11-19T13:13:51Z
2017-11-19T11:15:26Z,42.805,6.029,13.2939,4.59962,2472.069,2017-11-19T13:16:54Z
2017-11-19T11:18:29Z,42.805,6.029,13.2935,4.59970,2472.115,2017-11-19T13:19:57Z
2017-11-19T11:21:32Z,42.805,6.029,13.2937,4.59968,2472.077,2017-11-19T13:23:00Z
2017-11-19T11:24:35Z,42.805,6.029,13.2940,4.59964,2472.069,2017-11-19T13:26:03Z
2017-11-19T11:27:38Z,42.805,6.029,13.2938,4.59969,2472.077,2017-11-19T13:29:05Z
2017-11-19T11:30:41Z,42.805,6.029,13.2938,4.59967,2472.077,2017-11-19T13:32:08Z
2017-11-19T11:33:44Z,42.805,6.029,13.2939,4.59970,2472.092,2017-11-19T13:35:11Z
2017-11-19T11:36:46Z,42.805,6.029,13.2939,4.59973,2472.092,2017-11-19T13:38:14Z
2017-11-19T11:39:49Z,42.805,6.029,13.2939,4.59972,2472.092,2017-11-19T13:41:17Z
2017-11-19T11:42:52Z,42.805,6.029,13.2939,4.59971,2472.092,2017-11-19T13:44:20Z
2017-11-19T11:45:55Z,42.805,6.029,13.2937,4.59970,2472.069,2017-11-19T13:47:23Z
2017-11-19T11:48:58Z,42.805,6.029,13.2939,4.59972,2472.069,2017-11-19T13:50:26Z
2017-11-19T11:52:01Z,42.805,6.029,13.2938,4.59979,2472.055,2017-11-19T13:53:29Z
2017-11-19T11:55:04Z,42.805,6.029,13.2935,4.59978,2472.055,2017-11-19T13:56:32Z
2017-11-19T11:58:07Z,42.805,6.029,13.2934,4.59973,2472.032,2017-11-19T13:59:34Z
2017-11-19T12:01:10Z,42.805,6.029,13.2938,4.59978,2472.024,2017-11-19T14:02:37Z
2017-11-19T12:04:13Z,42.805,6.029,13.2939,4.59985,2472.069,2017-11-19T14:05:40Z
2017-11-19T12:07:15Z,42.805,6.029,13.2941,4.59985,2472.055,2017-11-19T14:08:43Z
2017-11-19T12:10:18Z,42.805,6.029,13.2937,4.59974,2472.092,2017-11-19T14:11:46Z
2017-11-19T12:13:21Z,42.805,6.029,13.2939,4.59971,2472.024,2017-11-19T14:14:49Z
2017-11-19T12:16:24Z,42.805,6.029,13.2940,4.59965,2472.047,2017-11-19T14:17:52Z
2017-11-19T12:19:27Z,42.805,6.029,13.2938,4.59970,2472.047,2017-11-19T14:20:55Z
2017-11-19T12:22:30Z,42.805,6.029,13.2940,4.59966,2472.047,2017-11-19T14:23:58Z
2017-11-19T12:25:33Z,42.805,6.029,13.2939,4.59971,2472.069,2017-11-19T14:27:01Z
2017-11-19T12:28:36Z,42.805,6.029,13.2935,4.59965,2472.01,2017-11-19T14:30:03Z
2017-11-19T12:31:39Z,42.805,6.029,13.2942,4.59971,2472.047,2017-11-19T14:33:06Z
2017-11-19T12:34:42Z,42.805,6.029,13.2935,4.59972,2472.055,2017-11-19T14:36:09Z
2017-11-19T12:37:44Z,42.805,6.029,13.2939,4.59972,2472.024,2017-11-19T14:39:12Z
2017-11-19T12:40:47Z,42.805,6.029,13.2942,4.59979,2472.024,2017-11-19T14:42:15Z
2017-11-19T12:43:50Z,42.805,6.029,13.2945,4.59964,2472.01,2017-11-19T14:45:18Z
2017-11-19T12:46:53Z,42.805,6.029,13.2939,4.59964,2472.047,2017-11-19T14:48:21Z
2017-11-19T12:49:56Z,42.805,6.029,13.2942,4.59966,2472.047,2017-11-19T14:51:24Z
2017-11-19T12:52:59Z,42.805,6.029,13.2940,4.59975,2472.01,2017-11-19T14:54:27Z
2017-11-19T12:56:02Z,42.805,6.029,13.2937,4.59973,2472.047,2017-11-19T14:57:29Z
2017-11-19T12:59:05Z,42.805,6.029,13.2940,4.59975,2472.047,2017-11-19T15:00:32Z
2017-11-19T13:02:08Z,42.805,6.029,13.2937,4.59975,2472.024,2017-11-19T15:03:35Z
2017-11-19T13:05:10Z,42.805,6.029,13.2936,4.59980,2472.024,2017-11-19T15:06:38Z
2017-11-19T13:08:13Z,42.805,6.029,13.2941,4.59984,2472.062,2017-11-19T15:09:41Z
2017-11-19T13:11:16Z,42.805,6.029,13.2939,4.59975,2472.01,2017-11-19T15:12:44Z
2017-11-19T13:14:19Z,42.805,6.029,13.2938,4.59975,2472.024,2017-11-19T15:15:47Z
2017-11-19T13:17:22Z,42.805,6.029,13.2939,4.59972,2472.002,2017-11-19T15:18:50Z
2017-11-19T13:20:25Z,42.805,6.029,13.2940,4.59970,2472.01,2017-11-19T15:21:53Z
2017-11-19T13:23:28Z,42.805,6.029,13.2937,4.59967,2472.024,2017-11-19T15:24:56Z
2017-11-19T13:26:31Z,42.805,6.029,13.2943,4.60002,2472.024,2017-11-19T15:27:58Z
2017-11-19T13:29:34Z,42.805,6.029,13.2962,4.59987,2472.047,2017-11-19T15:31:01Z
2017-11-19T13:32:37Z,42.805,6.029,13.2974,4.60043,2472.002,2017-11-19T15:34:04Z
2017-11-19T13:35:39Z,42.805,6.029,13.2979,4.60051,2472.01,2017-11-19T15:37:07Z
2017-11-19T13:38:42Z,42.805,6.029,13.2991,4.60004,2472.002,2017-11-19T15:40:10Z
2017-11-19T13:41:45Z,42.805,6.029,13.2985,4.59995,2471.987,2017-11-19T15:43:13Z
2017-11-19T13:44:48Z,42.805,6.029,13.2988,4.59979,2472.002,2017-11-19T15:46:16Z
2017-11-19T13:47:51Z,42.805,6.029,13.2999,4.60089,2472.002,2017-11-19T15:49:19Z
2017-11-19T13:50:54Z,42.805,6.029,13.3008,4.60048,2471.987,2017-11-19T15:52:22Z
2017-11-19T13:53:57Z,42.805,6.029,13.2988,4.60078,2471.987,2017-11-19T15:55:25Z
2017-11-19T13:57:00Z,42.805,6.029,13.2981,4.60060,2472.002,2017-11-19T15:58:27Z
2017-11-19T14:00:03Z,42.805,6.029,13.2965,4.60029,2472.002,2017-11-19T16:01:30Z
2017-11-19T14:03:06Z,42.805,6.029,13.2977,4.60034,2472.002,2017-11-19T16:04:33Z
2017-11-19T14:06:08Z,42.805,6.029,13.2982,4.60060,2471.987,2017-11-19T16:07:36Z
2017-11-19T14:09:11Z,42.805,6.029,13.2966,4.60005,2472.002,2017-11-19T16:10:39Z
2017-11-19T14:12:14Z,42.805,6.029,13.2982,4.60006,2471.979,2017-11-19T16:13:42Z
2017-11-19T14:15:17Z,42.805,6.029,13.2982,4.60032,2472.016,2017-11-19T16:16:45Z
2017-11-19T14:18:20Z,42.805,6.029,13.2959,4.60013,2471.979,2017-11-19T16:19:48Z
2017-11-19T14:21:23Z,42.805,6.029,13.2961,4.60035,2472.024,2017-11-19T16:22:51Z
2017-11-19T14:24:26Z,42.805,6.029,13.2966,4.60012,2472.002,2017-11-19T16:25:54Z
2017-11-19T14:27:29Z,42.805,6.029,13.2964,4.60039,2471.964,2017-11-19T16:28:56Z
2017-11-19T14:30:32Z,42.805,6.029,13.2973,4.60000,2472.024,2017-11-19T16:31:59Z
2017-11-19T14:33:35Z,42.805,6.029,13.2961,4.59987,2472.024,2017-11-19T16:35:02Z
2017-11-19T14:36:37Z,42.805,6.029,13.2966,4.60012,2472.024,2017-11-19T16:38:05Z
2017-11-19T14:39:40Z,42.805,6.029,13.2961,4.60028,2471.987,2017-11-19T16:41:08Z
2017-11-19T14:42:43Z,42.805,6.029,13.2957,4.60038,2472.002,2017-11-19T16:44:11Z
2017-11-19T14:45:46Z,42.805,6.029,13.2957,4.60007,2472.002,2017-11-19T16:47:14Z
2017-11-19T14:48:49Z,42.805,6.029,13.2954,4.60011,2472.024,2017-11-19T16:50:17Z
2017-11-19T14:51:52Z,42.805,6.029,13.2964,4.60004,2472.002,2017-11-19T16:53:20Z
2017-11-19T14:54:55Z,42.805,6.029,13.2956,4.59993,2471.979,2017-11-19T16:56:22Z
2017-11-19T14:57:58Z,42.805,6.029,13.2957,4.59984,2472.002,2017-11-19T16:59:25Z